User: anonymous   Login
Location: Unspecified
(0.0000°N, 0.0000°E)
Time: 18:35:34
(UTC+02:00)
Language:

Cosmos 1758 - Orbit

View from above orbital plane
View from above orbital plane
View from above satellite
View from above satellite

Ground track
Ground track

The orbit data is extracted from the following two-line orbital elements,

1 16791U 86046A   18110.52946794  .00000028  00000-0 -10245-6 0  9994
2 16791  82.4679  92.5752 0018130 119.9475 240.3555 15.04662142731894
Epoch (UTC): 20 April 2018 12:42:26
Eccentricity: 0.0018130
inclination: 82.4679°
perigee height: 540 km
apogee height: 565 km
right ascension of ascending node: 92.5752°
argument of perigee: 119.9475°
revolutions per day: 15.04662142
mean anomaly at epoch: 240.3555°
orbit number at epoch: 73189

The dashed part of the orbit path shows where the satellite is in the earth's shadow,  

DLR